IRIDIUM 54 [-]

Last updated on May 12, 2019, 3:05 a.m. UTC

1 25171U 98010C   19131.18278122  .35416330 -14313-5  24459-3 0  9990
2 25171  86.3932  58.4175 0039747  82.6482 278.3050 16.50076881111638

Satellite is not in orbit.